| time (UTC) | temp C | wind direction | speed KPH | gust KPH | rain 1hr cm | rain 24hr cm | rain mn cm | humidity % | barometer mb |
| 20260503205006 | 17 | 248 | 12.9 | 22.5 | 0.00 | 0.00 | 0.00 | 39 | 1015.8 |
| 20260503202004 | 16 | 180 | 11.3 | 22.5 | 0.00 | 0.00 | 0.00 | 39 | 1015.7 |
| 20260503201005 | 16 | 224 | 9.7 | 16.1 | 0.00 | 0.00 | 0.00 | 40 | 1015.7 |
| 20260503200011 | 16 | 220 | 8.0 | 17.7 | 0.00 | 0.00 | 0.00 | 40 | 1015.7 |
| 20260503194005 | 16 | 240 | 8.0 | 16.1 | 0.00 | 0.00 | 0.00 | 43 | 1015.8 |
| 20260503193007 | 16 | 219 | 4.8 | 9.7 | 0.00 | 0.00 | 0.00 | 45 | 1015.7 |
| 20260503192005 | 17 | 217 | 4.8 | 11.3 | 0.00 | 0.00 | 0.00 | 45 | 1015.7 |
| 20260503191006 | 17 | 221 | 4.8 | 8.0 | 0.00 | 0.00 | 0.00 | 46 | 1015.7 |
| 20260503190010 | 17 | 215 | 3.2 | 6.4 | 0.00 | 0.00 | 0.00 | 46 | 1015.6 |
| 20260503185004 | 17 | 215 | 4.8 | 8.0 | 0.00 | 0.00 | 0.00 | 45 | 1015.5 |
| 20260503182007 | 18 | 210 | 4.8 | 8.0 | 0.00 | 0.00 | 0.00 | 42 | 1015.2 |
| 20260503181008 | 19 | 216 | 6.4 | 9.7 | 0.00 | 0.00 | 0.00 | 42 | 1015.2 |
| 20260503175005 | 20 | 246 | 6.4 | 11.3 | 0.00 | 0.00 | 0.00 | 40 | 1015.2 |
| 20260503174005 | 21 | 230 | 6.4 | 9.7 | 0.00 | 0.00 | 0.00 | 39 | 1015.0 |
| 20260503172008 | 21 | 248 | 8.0 | 12.9 | 0.00 | 0.00 | 0.00 | 36 | 1015.0 |
| 20260503171005 | 22 | 216 | 11.3 | 19.3 | 0.00 | 0.00 | 0.00 | 34 | 1015.0 |
| 20260503151004 | 23 | 209 | 14.5 | 20.9 | 0.00 | 0.00 | 0.00 | 32 | 1015.4 |
| 20260503072005 | 17 | 196 | 12.9 | 19.3 | 0.00 | 0.00 | 0.00 | 48 | 1019.1 |
| 20260503071006 | 17 | 169 | 11.3 | 19.3 | 0.00 | 0.00 | 0.00 | 48 | 1019.1 |
| 20260503055006 | 13 | 200 | 8.0 | 16.1 | 0.00 | 0.00 | 0.00 | 57 | 1018.9 |
| 20260503054006 | 13 | 182 | 6.4 | 11.3 | 0.00 | 0.00 | 0.00 | 60 | 1018.9 |
| 20260503052006 | 11 | 158 | 3.2 | 9.7 | 0.00 | 0.00 | 0.00 | 68 | 1019.0 |
| 20260503051005 | 9 | 134 | 0.0 | 1.6 | 0.00 | 0.00 | 0.00 | 75 | 1019.0 |
| 20260503050010 | 8 | 134 | 1.6 | 3.2 | 0.00 | 0.00 | 0.00 | 74 | 1019.0 |
| 20260503045007 | 8 | 133 | 1.6 | 3.2 | 0.00 | 0.00 | 0.00 | 76 | 1018.9 |
| 20260503043006 | 6 | 134 | 0.0 | 1.6 | 0.00 | 0.00 | 0.00 | 79 | 1018.9 |
| 20260503042005 | 6 | 134 | 0.0 | 1.6 | 0.00 | 0.00 | 0.00 | 80 | 1018.8 |
| 20260503041005 | 5 | 134 | 0.0 | 1.6 | 0.00 | 0.00 | 0.00 | 81 | 1018.8 |
| 20260503040008 | 5 | 134 | 0.0 | 1.6 | 0.00 | 0.00 | 0.00 | 82 | 1018.8 |
| 20260503035007 | 5 | 134 | 0.0 | 1.6 | 0.00 | 0.00 | 0.00 | 82 | 1018.9 |
| 20260503034007 | 4 | 134 | 1.6 | 3.2 | 0.00 | 0.00 | 0.00 | 82 | 1018.8 |
| 20260503033006 | 5 | 134 | 3.2 | 4.8 | 0.00 | 0.00 | 0.00 | 81 | 1018.7 |
| 20260503032005 | 5 | 134 | 1.6 | 3.2 | 0.00 | 0.00 | 0.00 | 81 | 1018.7 |
| 20260503031006 | 5 | 134 | 1.6 | 4.8 | 0.00 | 0.00 | 0.00 | 83 | 1018.7 |
| 20260503030009 | 4 | 134 | 1.6 | 4.8 | 0.00 | 0.00 | 0.00 | 83 | 1018.5 |
| 20260503024007 | 5 | 134 | 0.0 | 3.2 | 0.00 | 0.00 | 0.00 | 80 | 1018.5 |
| 20260503023006 | 5 | 134 | 1.6 | 1.6 | 0.00 | 0.00 | 0.00 | 80 | 1018.6 |
| 20260503022008 | 5 | 134 | 0.0 | 0.0 | 0.00 | 0.00 | 0.00 | 81 | 1018.6 |
| 20260503021009 | 5 | 134 | 1.6 | 4.8 | 0.00 | 0.00 | 0.00 | 79 | 1018.6 |
| 20260503015008 | 6 | 134 | 3.2 | 4.8 | 0.00 | 0.00 | 0.00 | 78 | 1018.7 |
| 20260503014010 | 6 | 134 | 3.2 | 6.4 | 0.00 | 0.00 | 0.00 | 78 | 1018.8 |
| 20260503013006 | 6 | 134 | 1.6 | 4.8 | 0.00 | 0.00 | 0.00 | 77 | 1018.7 |
| 20260503011007 | 7 | 134 | 0.0 | 4.8 | 0.00 | 0.00 | 0.00 | 76 | 1018.7 |
| 20260503010009 | 7 | 134 | 1.6 | 3.2 | 0.00 | 0.00 | 0.00 | 76 | 1018.7 |
| 20260503005006 | 7 | 134 | 1.6 | 3.2 | 0.00 | 0.00 | 0.00 | 74 | 1018.7 |
| 20260503004006 | 7 | 134 | 1.6 | 3.2 | 0.00 | 0.00 | 0.00 | 74 | 1018.6 |
| 20260503003008 | 8 | 134 | 4.8 | 6.4 | 0.00 | 0.00 | 0.00 | 72 | 1018.7 |
| 20260503002008 | 8 | 134 | 4.8 | 6.4 | 0.00 | 0.00 | 0.00 | 70 | 1018.7 |
| 20260503001010 | 8 | 134 | 4.8 | 9.7 | 0.00 | 0.00 | 0.00 | 69 | 1018.7 |
| 20260503000012 | 8 | 123 | 8.0 | 11.3 | 0.00 | 0.00 | 0.00 | 70 | 1018.7 |
| 20260502235009 | 8 | 119 | 9.7 | 11.3 | 0.00 | 0.00 | 0.00 | 69 | 1018.8 |
| 20260502233006 | 7 | 139 | 1.6 | 4.8 | 0.00 | 0.00 | 0.00 | 72 | 1019.0 |
| 20260502231006 | 8 | 139 | 3.2 | 6.4 | 0.00 | 0.00 | 0.00 | 69 | 1019.3 |
| 20260502230009 | 9 | 139 | 3.2 | 4.8 | 0.00 | 0.00 | 0.00 | 66 | 1019.3 |
| 20260502225004 | 9 | 113 | 0.0 | 1.6 | 0.00 | 0.00 | 0.00 | 66 | 1019.3 |
| 20260502224004 | 9 | 113 | 1.6 | 3.2 | 0.00 | 0.00 | 0.00 | 66 | 1019.4 |
| 20260502223004 | 10 | 113 | 0.0 | 1.6 | 0.00 | 0.00 | 0.00 | 64 | 1019.4 |
| 20260502221004 | 10 | 113 | 1.6 | 3.2 | 0.00 | 0.00 | 0.00 | 61 | 1019.5 |
| 20260502220010 | 10 | 113 | 1.6 | 4.8 | 0.00 | 0.00 | 0.00 | 60 | 1019.5 |
| 20260502215006 | 11 | 113 | 1.6 | 3.2 | 0.00 | 0.00 | 0.00 | 57 | 1019.6 |
| 20260502214006 | 12 | 113 | 4.8 | 11.3 | 0.00 | 0.00 | 0.00 | 56 | 1019.5 |
| 20260502213005 | 12 | 116 | 3.2 | 6.4 | 0.00 | 0.00 | 0.00 | 55 | 1019.5 |
| 20260502212005 | 12 | 110 | 3.2 | 6.4 | 0.00 | 0.00 | 0.00 | 54 | 1019.7 |
| 20260502211007 | 13 | 110 | 3.2 | 6.4 | 0.00 | 0.00 | 0.00 | 52 | 1019.7 |
| 20260502210010 | 13 | 111 | 4.8 | 11.3 | 0.00 | 0.00 | 0.00 | 50 | 1019.8 |